Starlink 1627

operational
NORAD ID: 46168 Int'l Des: 2020-057 Owner: SPXS Country: US Constellation: starlink
LEOCIRCULARSTARLINK_TYPE

Über Starlink 1627

Beschreibung wird geladen...

Live-Position

3D-Globus wird geladen...

Nächste Überflüge

Höhenverlauf

Altitude vs Time

uPlot chart will show altitude changes over time

Zweizeiliger Elementsatz

1 46168U 20057BD 25353.90195869 .00068214 00000-0 14919-2 0 9991
2 46168 53.0517 251.6133 0014352 99.3617 260.9011 15.43444499294921
Epoch: 19. Dez. 2025 • Age: 9 hours

Aktueller Status

Höhe 454.4 km
Geschwindigkeit 7.64 km/s
Subsatellitenpunkt -38.17°S, 79.36°W
Startdatum 18. Aug. 2020
Alter 5.3 years
Typ internet

Technische Details

Klassifizierung Payload
Masse 260.00 kg
Trockenmasse 248.00 kg
Gesamtmasse 260.00 kg
Länge 0.20 m
Durchmesser 2.80 m
Spannweite 9.00 m
Form Box + pan
Hersteller SPXS
Bus-Typ Starlink
Phasenstatus In Orbit
Besitzer/Staat SPXS/US

Große Konstellationen

Loading constellations...